RH
62 66 64 63 42 46 55 56 58 53 55 58 62 63 66 74 74 78 81 79 71 64
56 64 67 61 51 46 50 54 56 56 60 61 63 67 72 77 74 76 79 80 74 69
53 56 63 69 66 50 49 53 54 59 62 67 67 80 84 81 77 79 80 80 77 71
51 53 58 67 73 63 51 51 53 60 65 69 75 84 89 88 83 81 82 84 80 75
47 51 54 61 67 74 67 56 54 60 66 70 78 84 86 91 88 82 84 83 83 76
47 48 52 58 62 67 70 65 60 60 66 70 74 79 81 91 83 82 86 84 86 82
44 48 49 51 54 59 65 68 65 60 61 68 73 74 83 89 81 83 87 84 88 85
39 42 47 49 49 53 56 63 67 64 62 67 72 74 83 85 83 82 89 86 87 88
43 45 48 50 53 54 53 57 63 65 64 64 68 73 82 81 82 84 87 91 93 83
48 50 54 57 58 58 59 63 63 65 66 64 67 71 82 80 80 84 91 93 92 85
56 56 57 59 61 61 62 64 69 69 67 65 67 74 81 79 83 83 89 92 95 92
55 57 60 62 65 66 65 65 71 74 72 68 70 74 79 82 83 87 88 91 94 88
55 58 61 63 64 68 70 69 72 77 79 74 76 81 82 86 88 88 89 89 96 86
53 56 60 63 65 70 74 73 76 77 80 78 80 83 87 89 90 89 89 88 93 86